Location: Narrabri
(30.3170°S, 149.7830°E)
Time: 10:56:21

Tiangong 1 - Visible Passes

Search period start: 20 March 2018 00:00
Search period end: 30 March 2018 00:00
Orbit: 217 x 238 km, 42.7° (Epoch: 19 March)

Date Brightness Start Highest point End Pass type
(mag) Time Alt. Az. Time Alt. Az. Time Alt. Az.
23 Mar 2.1 20:18:08 10° NW 20:19:02 20° NNW 20:19:02 20° NNW visible
24 Mar 0.1 19:58:37 10° NW 20:00:38 54° NE 20:01:09 38° E visible
25 Mar -0.2 19:38:26 10° NW 19:40:28 80° NNE 19:42:24 11° ESE visible
